Weather Roundup
Issued by NWS

Home | Current Version | Previous Version | Text Only | Print | Product List | Glossary On
Versions: 1 2 3 4 5 6 7 8 9 10 11 12 13 14 15 16 17 18 19 20 21 22 23 24 25 26 27 28 29 30 31 32 33 34 35 36 37 38 39 40 41 42 43 44 45 46 47 48 49 50
000
NZUS93 KARX 021310
HRRWXR

CURRENT HOURLY OBSERVATIONS ACROSS
MUCH OF THE UPPER MISSISSIPPI VALLEY
NATIONAL WEATHER SERVICE LA CROSSE WI
700 AM CST MON MAR 02 2015


...SOUTHEAST MINNESOTA...


CITY           SKY/WX    TMP DP  RH WIND       PRES   REMARKS
ROCHESTER      PTCLDY     5   2  87 W8        30.44R WCI  -8
ROCHESTER/MAYO FAIR      10   7  87 W5        30.45S WCI   2
WINONA         PTCLDY     9   3  78 CALM      30.49S
AUSTIN         FAIR       3   1  92 CALM      30.46R
ALBERT LEA       N/A      1  -2  85 CALM      30.46R
DODGE CENTER   PTCLDY     1   0  92 CALM      30.44R
PRESTON        MOCLDY     6   3  88 NW5       30.45R WCI  -3
OWATONNA       PTCLDY     0  -4  85 CALM      30.45F
FARIBAULT      PTCLDY     0  -6  78 CALM      30.46S
$$

...ELSEWHERE IN MINNESOTA...


CITY           SKY/WX    TMP DP  RH WIND       PRES   REMARKS
MINNEAPOLIS    PTCLDY     9   5  84 SW6       30.47R WCI  -1
INTNL FALLS    MOCLDY    -9 -13  83 SW3       30.32R
DULUTH         PTCLDY     2  -3  80 W9        30.33R WCI -13
RED WING       PTCLDY     1  -2  85 CALM      30.47R
REDWOOD FALLS  PTCLDY     4   0  83 CALM      30.44F
MANKATO        PTCLDY     7   1  78 SW5       30.46S WCI  -2
FAIRMONT       PTCLDY     1  -2  85 SW5       30.46S WCI  -8
$$

...SOUTHWEST WISCONSIN...


CITY           SKY/WX    TMP DP  RH WIND       PRES   REMARKS
LA CROSSE      CLEAR     12   7  80 CALM      30.49R
PRAIRIE DU CHI PTCLDY     4   0  81 SW3       30.51R
BOSCOBEL       MOCLDY     1  -5  75 CALM      30.50S
LONE ROCK      FAIR      -3  -8  79 CALM      30.49R
PLATTEVILLE    CLEAR      9   7  90 CALM      30.47R
FORT MC COY    PTCLDY    -3  -7  84 CALM      30.47S
CAMP DOUGLAS   PTCLDY     6   5  92 W5        30.45S WCI  -2
VIROQUA        FAIR       9   8  95 CALM      30.43R
WIS DELLS      PTCLDY     9   5  86 CALM      30.44S
$$

...ELSEWHERE IN WISCONSIN...


CITY           SKY/WX    TMP DP  RH WIND       PRES   REMARKS
MILWAUKEE      PTCLDY    18   8  65 NW7       30.44R WCI   9
MADISON        PTCLDY     7   3  84 W3        30.46R
GREEN BAY      CLEAR     12   6  77 W8        30.43R WCI   0
EAU CLAIRE     PTCLDY     1  -3  83 CALM      30.44F
BLACK RVR FLS  FAIR      -1  -6  81 CALM      30.45S
MEDFORD        FAIR       2   0  88 W6        30.39R WCI  -9
WAUSAU         CLEAR      8   3  80 N3        30.39R
WIS RAPIDS     FAIR       8   3  80 NW6       30.44S WCI  -2
MARSHFIELD     PTCLDY     1  -4  79 NW7       30.41R WCI -12
RICE LAKE      PTCLDY    -3  -7  84 E5        30.42F WCI -14
$$

...NORTHEAST IOWA...


CITY           SKY/WX    TMP DP  RH WIND       PRES   REMARKS
DECORAH        MOCLDY     7   5  92 CALM      30.46R
MASON CITY     PTCLDY    -2  -4  91 W6        30.49R WCI -14
CHARLES CITY   PTCLDY     1   0  92 W5        30.49R WCI  -8
OELWEIN        FOG        3   0  85 NW5       30.50R VSB 1   WCI  -6
$$

...ELSEWHERE IN IOWA...


CITY           SKY/WX    TMP DP  RH WIND       PRES   REMARKS
DES MOINES     MOCLDY    17  11  77 CALM      30.52R
IOWA CITY      PTCLDY     8   6  92 W6        30.54S WCI  -2
FORT DODGE     PTCLDY     3   0  85 CALM      30.50S
$$

...NORTHERN ILLINOIS...


CITY           SKY/WX    TMP DP  RH WIND       PRES   REMARKS
CHICAGO-OHARE  PTCLDY    14   8  77 W10       30.47R WCI   1
CHICAGO-MIDWAY PTCLDY    16  10  77 W5        30.48R WCI   9
MOLINE         FAIR       5   1  83 W3        30.52S
ROCKFORD       PTCLDY     5   2  87 CALM      30.50R
PEORIA         MOCLDY    18  12  77 NW5       30.52R WCI  11
$$

NOTE: "FAIR" INDICATES FEW OR NO CLOUDS BELOW 12,000 FEET WITH NO
SIGNIFICANT WEATHER AND/OR OBSTRUCTIONS TO VISIBILITY. WIND
SPEEDS ARE IN MILES-PER-HOUR.



USA.gov is the U.S. government's official web portal to all federal, state and local government web resources and services.